CW8284 Weather Reports


Display with metric or nautical units.
time (UTC)temp
F
wind
direction
speed
MPH
gust
MPH
rain 1hr
in
rain 24hr
in
rain mn
in
humidity
%
barometer
mb
20260509135314 58 292 1.0 1.0 0.00 0.00 0.00 1012.6
20260509134613 58 315 1.0 1.0 0.00 0.00 0.00 1012.4
20260509134213 57 337 1.0 2.0 0.00 0.00 0.00 1012.2
20260509134113 58 292 0.0 0.0 0.00 0.00 0.00 1012.3
20260509133713 57 45 1.0 2.0 0.00 0.00 0.00 1012.3
20260509133613 57 337 2.0 3.0 0.00 0.00 0.00 1012.3
20260509132913 57 292 1.0 2.0 0.00 0.00 0.00 1012.1
20260509132813 57 315 1.0 1.0 0.00 0.00 0.00 1011.8
20260509131213 57 45 0.0 1.0 0.00 0.00 0.00 1012.0
20260509131113 57 45 0.0 0.0 0.00 0.00 0.00 1012.0
20260509131013 57 45 0.0 0.0 0.00 0.00 0.00 1012.1
20260509130314 57 337 2.0 3.0 0.00 0.00 0.00 1011.9
20260509125313 57 0 0.0 0.0 0.00 0.00 0.00 1012.0
20260509125213 57 180 0.0 0.0 0.00 0.00 0.00 1011.8
20260509125113 57 180 0.0 0.0 0.00 0.00 0.00 1011.9
20260509124413 57 247 0.0 0.0 0.00 0.00 0.00 1011.9
20260509123713 57 337 1.0 2.0 0.00 0.00 0.00 1011.9
20260509123313 57 315 1.0 1.0 0.00 0.00 0.00 1011.8
20260509121413 57 315 1.0 1.0 0.00 0.00 0.00 1011.9
20260509121314 57 315 1.0 2.0 0.00 0.00 0.00 1011.7
20260509120313 57 337 2.0 3.0 0.00 0.00 0.00 1011.9
20260509120213 57 337 2.0 3.0 0.00 0.00 0.00 1012.0
20260509120113 57 315 2.0 2.0 0.00 0.00 0.00 1012.0
20260509120013 57 337 2.0 3.0 0.00 0.00 0.00 1011.9
20260509115913 57 337 2.0 3.0 0.00 0.00 0.00 1011.9
20260509115813 57 337 1.0 2.0 0.00 0.00 0.00 1011.9
20260509115713 57 337 2.0 2.0 0.00 0.00 0.00 1012.0
20260509115613 57 0 2.0 2.0 0.00 0.00 0.00 1011.9
20260509115513 57 315 1.0 2.0 0.00 0.00 0.00 1012.1
20260509115413 57 22 1.0 2.0 0.00 0.00 0.00 1012.0
20260509115013 57 22 1.0 1.0 0.00 0.00 0.00 1011.9
20260509114313 57 337 1.0 2.0 0.00 0.00 0.00 1012.0
20260509114213 57 22 1.0 1.0 0.00 0.00 0.00 1011.9
20260509114114 57 45 1.0 2.0 0.00 0.00 0.00 1012.0
20260509113714 57 45 2.0 2.0 0.00 0.00 0.00 1012.0
20260509113613 57 22 2.0 3.0 0.00 0.00 0.00 1012.0
20260509113513 57 45 2.0 3.0 0.00 0.00 0.00 1011.9
20260509112514 57 45 2.0 3.0 0.00 0.00 0.00 1012.0
20260509111814 57 22 0.0 1.0 0.00 0.00 0.00 1011.8
20260509111713 57 157 0.0 1.0 0.00 0.00 0.00 1011.8
20260509111613 57 315 1.0 2.0 0.00 0.00 0.00 1012.1
20260509110913 57 0 1.0 2.0 0.00 0.00 0.00 1011.8
20260509110813 57 337 1.0 1.0 0.00 0.00 0.00 1011.7
20260509110413 58 292 1.0 2.0 0.00 0.00 0.00 1011.9
20260509110313 58 0 1.0 2.0 0.00 0.00 0.00 1011.9
20260509105913 58 292 2.0 3.0 0.00 0.00 0.00 1011.9
20260509105813 58 315 3.0 4.0 0.00 0.00 0.00 1011.9
20260509105114 58 315 0.0 1.0 0.00 0.00 0.00 1011.8
20260509104713 58 315 1.0 1.0 0.00 0.00 0.00 1011.9
20260509104313 58 337 1.0 1.0 0.00 0.00 0.00 1011.8
20260509104214 58 45 1.0 2.0 0.00 0.00 0.00 1012.1
20260509103513 58 315 0.0 2.0 0.00 0.00 0.00 1012.0
20260509103413 58 337 1.0 2.0 0.00 0.00 0.00 1012.1
20260509103313 58 292 1.0 2.0 0.00 0.00 0.00 1011.9
20260509102614 58 22 1.0 1.0 0.00 0.00 0.00 1012.0
20260509102213 58 22 1.0 1.0 0.00 0.00 0.00 1012.0
20260509102113 58 0 0.0 1.0 0.00 0.00 0.00 1012.0
20260509102013 58 225 0.0 0.0 0.00 0.00 0.00 1011.9
20260509101913 58 225 0.0 0.0 0.00 0.00 0.00 1012.1
20260509101214 58 202 0.0 0.0 0.00 0.00 0.00 1012.1
20260509101113 58 225 0.0 0.0 0.00 0.00 0.00 1012.0
20260509101013 58 202 0.0 0.0 0.00 0.00 0.00 1012.1
20260509100913 58 202 0.0 1.0 0.00 0.00 0.00 1012.0
20260509100813 58 180 1.0 2.0 0.00 0.00 0.00 1012.2
20260509100713 58 225 1.0 2.0 0.00 0.00 0.00 1012.0
20260509100613 58 202 0.0 1.0 0.00 0.00 0.00 1012.0
20260509100213 58 90 0.0 0.0 0.00 0.00 0.00 1012.2
20260509095813 58 135 1.0 1.0 0.00 0.00 0.00 1012.2
20260509094813 58 202 0.0 0.0 0.00 0.00 0.00 1012.3
20260509094713 58 180 0.0 0.0 0.00 0.00 0.00 1012.4
20260509094613 58 157 0.0 0.0 0.00 0.00 0.00 1012.5
20260509094514 58 202 0.0 0.0 0.00 0.00 0.00 1012.3
20260509094413 58 202 0.0 0.0 0.00 0.00 0.00 1012.3
20260509094313 58 202 0.0 0.0 0.00 0.00 0.00 1012.2
20260509094213 58 202 1.0 1.0 0.00 0.00 0.00 1012.3
20260509094113 58 202 1.0 2.0 0.00 0.00 0.00 1012.5
20260509093113 58 202 1.0 1.0 0.00 0.00 0.00 1012.5
20260509093013 58 202 1.0 1.0 0.00 0.00 0.00 1012.3
20260509092913 58 225 1.0 2.0 0.00 0.00 0.00 1012.3
20260509092813 58 270 0.0 1.0 0.00 0.00 0.00 1012.4
20260509092713 58 270 0.0 0.0 0.00 0.00 0.00 1012.2
20260509092613 58 247 0.0 0.0 0.00 0.00 0.00 1012.4
20260509092213 58 270 0.0 0.0 0.00 0.00 0.00 1012.5
20260509091814 57 202 0.0 1.0 0.00 0.00 0.00 1012.6
20260509091714 57 202 0.0 0.0 0.00 0.00 0.00 1012.5
20260509091614 57 180 0.0 0.0 0.00 0.00 0.00 1012.5
20260509091213 57 225 0.0 1.0 0.00 0.00 0.00 1012.5
20260509091113 57 225 0.0 1.0 0.00 0.00 0.00 1012.4
20260509091014 57 270 0.0 0.0 0.00 0.00 0.00 1012.5
20260509090913 57 270 1.0 1.0 0.00 0.00 0.00 1012.3
20260509090813 57 270 0.0 1.0 0.00 0.00 0.00 1012.3
20260509090713 57 337 0.0 0.0 0.00 0.00 0.00 1012.4
20260509090613 57 270 0.0 1.0 0.00 0.00 0.00 1012.3
20260509084413 57 247 1.0 1.0 0.00 0.00 0.00 1012.6
20260509084313 57 225 1.0 2.0 0.00 0.00 0.00 1012.6
20260509083913 56 292 1.0 1.0 0.00 0.00 0.00 1012.7
20260509082913 56 247 0.0 0.0 0.00 0.00 0.00 1012.6
20260509082213 57 247 2.0 2.0 0.00 0.00 0.00 1012.7
20260509082113 57 247 1.0 1.0 0.00 0.00 0.00 1012.7
20260509082013 57 247 1.0 1.0 0.00 0.00 0.00 1012.7
20260509081614 57 247 1.0 1.0 0.00 0.00 0.00 1012.7
20260509081513 57 225 1.0 1.0 0.00 0.00 0.00 1012.8
20260509081413 57 225 1.0 1.0 0.00 0.00 0.00 1012.8
20260509081313 57 202 1.0 1.0 0.00 0.00 0.00 1012.8
20260509080014 57 180 1.0 2.0 0.00 0.00 0.00 1012.8
20260509075913 57 225 1.0 2.0 0.00 0.00 0.00 1012.8
20260509075813 57 180 1.0 2.0 0.00 0.00 0.00 1012.8
20260509073913 57 225 1.0 2.0 0.00 0.00 0.00 1012.5
20260509071413 58 225 1.0 2.0 0.00 0.00 0.00 1013.0
20260509071313 58 225 2.0 3.0 0.00 0.00 0.00 1012.9
20260509071213 58 225 1.0 3.0 0.00 0.00 0.00 1012.9
20260509070813 58 225 2.0 3.0 0.00 0.00 0.00 1013.0
20260509065814 58 202 1.0 2.0 0.00 0.00 0.00 1013.1
20260509065713 58 225 2.0 3.0 0.00 0.00 0.00 1013.1
20260509065613 58 225 2.0 3.0 0.00 0.00 0.00 1013.1
20260509065513 58 202 2.0 4.0 0.00 0.00 0.00 1013.1
20260509064813 58 225 0.0 1.0 0.00 0.00 0.00 1012.8
20260509064413 58 225 2.0 2.0 0.00 0.00 0.00 1013.2
20260509064013 58 247 1.0 1.0 0.00 0.00 0.00 1013.1
20260509063913 58 202 1.0 1.0 0.00 0.00 0.00 1012.9
20260509063813 58 202 1.0 2.0 0.00 0.00 0.00 1013.1
20260509063713 58 202 0.0 0.0 0.00 0.00 0.00 1012.7
20260509063313 58 225 2.0 2.0 0.00 0.00 0.00 1012.9
20260509062313 59 202 1.0 3.0 0.00 0.00 0.00 1012.8
20260509061913 59 180 1.0 2.0 0.00 0.00 0.00 1013.0
20260509061214 59 202 0.0 2.0 0.00 0.00 0.00 1012.9
20260509060213 59 180 0.0 1.0 0.00 0.00 0.00 1012.8
20260509060113 59 202 1.0 1.0 0.00 0.00 0.00 1012.8
20260509060013 59 202 1.0 2.0 0.00 0.00 0.00 1012.9
20260509055613 59 180 0.0 1.0 0.00 0.00 0.00 1012.8
20260509055513 59 202 1.0 2.0 0.00 0.00 0.00 1012.8
20260509055113 59 157 0.0 1.0 0.00 0.00 0.00 1012.9
20260509054414 59 202 1.0 2.0 0.00 0.00 0.00 1012.8
20260509054313 59 202 0.0 1.0 0.00 0.00 0.00 1013.0
20260509054213 59 180 1.0 1.0 0.00 0.00 0.00 1012.9
20260509053813 60 225 0.0 1.0 0.00 0.00 0.00 1013.0
20260509053713 60 202 1.0 1.0 0.00 0.00 0.00 1012.9
20260509053613 60 180 1.0 2.0 0.00 0.00 0.00 1012.8
20260509053513 60 202 1.0 2.0 0.00 0.00 0.00 1012.9
20260509052513 60 180 1.0 2.0 0.00 0.00 0.00 1013.0
20260509051815 60 180 0.0 1.0 0.00 0.00 0.00 1013.1
20260509051713 60 180 0.0 1.0 0.00 0.00 0.00 1013.1
20260509051013 60 202 0.0 1.0 0.00 0.00 0.00 1012.9
20260509050913 60 202 1.0 2.0 0.00 0.00 0.00 1012.7
20260509050813 60 202 0.0 1.0 0.00 0.00 0.00 1012.9
20260509050113 60 180 0.0 1.0 0.00 0.00 0.00 1013.0
20260509045413 60 180 1.0 2.0 0.00 0.00 0.00 1013.0
20260509044113 61 225 1.0 3.0 0.00 0.00 0.00 1012.8
20260509043713 61 202 1.0 2.0 0.00 0.00 0.00 1012.8
20260509042713 61 247 2.0 4.0 0.00 0.00 0.00 1012.5
20260509042613 61 225 0.0 1.0 0.00 0.00 0.00 1012.8
20260509042213 61 180 0.0 1.0 0.00 0.00 0.00 1012.7
20260509041213 62 225 3.0 5.0 0.00 0.00 0.00 1012.5
20260509040213 62 202 2.0 3.0 0.00 0.00 0.00 1012.3
20260509040113 62 225 3.0 5.0 0.00 0.00 0.00 1012.3
20260509035413 63 180 3.0 4.0 0.00 0.00 0.00 1012.2
20260509035313 63 202 2.0 3.0 0.00 0.00 0.00 1012.2
20260509034913 63 180 1.0 2.0 0.00 0.00 0.00 1012.3
20260509034813 63 202 3.0 3.0 0.00 0.00 0.00 1012.1
20260509034713 63 225 3.0 4.0 0.00 0.00 0.00 1012.2
20260509034613 63 202 3.0 4.0 0.00 0.00 0.00 1012.2
20260509034513 63 225 3.0 4.0 0.00 0.00 0.00 1012.2
20260509034413 63 202 2.0 4.0 0.00 0.00 0.00 1012.2
20260509034313 63 180 2.0 4.0 0.00 0.00 0.00 1012.2
20260509034213 64 202 1.0 3.0 0.00 0.00 0.00 1012.2
20260509033513 64 225 1.0 3.0 0.00 0.00 0.00 1012.1
20260509033113 64 180 2.0 3.0 0.00 0.00 0.00 1012.1
20260509032713 64 225 2.0 3.0 0.00 0.00 0.00 1012.2
20260509031713 65 180 1.0 1.0 0.00 0.00 0.00 1012.0
20260509031613 65 157 2.0 2.0 0.00 0.00 0.00 1011.9
20260509031213 65 225 2.0 3.0 0.00 0.00 0.00 1012.0
20260509031113 65 180 3.0 3.0 0.00 0.00 0.00 1012.1
20260509031013 65 202 3.0 4.0 0.00 0.00 0.00 1012.1
20260509030913 65 225 3.0 4.0 0.00 0.00 0.00 1012.0
20260509030213 65 202 3.0 5.0 0.00 0.00 0.00 1011.9
20260509025213 66 180 1.0 2.0 0.00 0.00 0.00 1011.6
20260509024813 66 202 1.0 2.0 0.00 0.00 0.00 1011.6
20260509024713 66 202 1.0 2.0 0.00 0.00 0.00 1011.6
20260509024613 66 180 1.0 2.0 0.00 0.00 0.00 1011.6
20260509024513 66 225 2.0 4.0 0.00 0.00 0.00 1011.5
20260509023814 66 270 3.0 4.0 0.00 0.00 0.00 1011.5
20260509023413 67 225 4.0 6.0 0.00 0.00 0.00 1011.6
20260509023313 67 225 3.0 5.0 0.00 0.00 0.00 1011.6
20260509022313 67 202 1.0 3.0 0.00 0.00 0.00 1011.6
20260509022213 67 225 3.0 4.0 0.00 0.00 0.00 1011.6
20260509021213 68 225 4.0 6.0 0.00 0.00 0.00 1011.6
20260509020813 68 180 4.0 6.0 0.00 0.00 0.00 1011.4
20260509020713 68 225 5.0 7.0 0.00 0.00 0.00 1011.4
20260509020613 68 180 3.0 4.0 0.00 0.00 0.00 1011.6
20260509020513 69 180 4.0 6.0 0.00 0.00 0.00 1011.5
20260509020413 69 202 4.0 7.0 0.00 0.00 0.00 1011.4
20260509020313 69 202 3.0 4.0 0.00 0.00 0.00 1011.5
20260509015613 69 225 4.0 5.0 0.00 0.00 0.00 1011.3
20260509015213 70 157 3.0 6.0 0.00 0.00 0.00 1011.2
20260509014513 71 157 3.0 6.0 0.00 0.00 0.00 1011.3
20260509014413 71 157 1.0 3.0 0.00 0.00 0.00 1011.3
20260509014313 71 225 2.0 4.0 0.00 0.00 0.00 1011.2
20260509013613 71 180 2.0 4.0 0.00 0.00 0.00 1011.3
20260509013213 71 157 1.0 2.0 0.00 0.00 0.00 1011.5
20260509013113 71 225 2.0 4.0 0.00 0.00 0.00 1011.4
20260509013013 71 180 4.0 7.0 0.00 0.00 0.00 1011.5
20260509012913 72 225 4.0 5.0 0.00 0.00 0.00 1011.4
20260509012813 72 202 2.0 4.0 0.00 0.00 0.00 1011.4
20260509012713 72 202 5.0 7.0 0.00 0.00 0.00 1011.4
20260509012613 72 202 5.0 7.0 0.00 0.00 0.00 1011.4
20260509012513 72 202 3.0 6.0 0.00 0.00 0.00 1011.2
20260509012114 72 270 5.0 6.0 0.00 0.00 0.00 1011.4
20260509011713 72 202 1.0 2.0 0.00 0.00 0.00 1011.0
20260509011313 73 202 3.0 4.0 0.00 0.00 0.00 1011.2
20260509011213 73 225 4.0 7.0 0.00 0.00 0.00 1011.0
20260509011113 73 180 5.0 6.0 0.00 0.00 0.00 1011.1
20260509010413 74 180 2.0 4.0 0.00 0.00 0.00 1011.0
20260509010013 74 180 4.0 6.0 0.00 0.00 0.00 1011.1
20260509005913 74 180 4.0 6.0 0.00 0.00 0.00 1011.1
20260509005813 74 202 3.0 5.0 0.00 0.00 0.00 1011.1
20260509005713 74 225 4.0 6.0 0.00 0.00 0.00 1011.1
20260509005613 74 247 4.0 9.0 0.00 0.00 0.00 1011.2
20260509005513 74 157 5.0 7.0 0.00 0.00 0.00 1011.0
20260509005413 74 202 3.0 7.0 0.00 0.00 0.00 1011.0
20260509005313 74 225 3.0 5.0 0.00 0.00 0.00 1011.0
20260509004913 75 225 5.0 7.0 0.00 0.00 0.00 1011.0
20260509003913 76 202 2.0 6.0 0.00 0.00 0.00 1011.0
20260509003513 76 180 2.0 2.0 0.00 0.00 0.00 1010.9
20260509002813 77 157 2.0 2.0 0.00 0.00 0.00 1011.0
20260509002414 77 247 2.0 4.0 0.00 0.00 0.00 1010.9
20260509002313 77 135 3.0 4.0 0.00 0.00 0.00 1010.9
20260509002213 77 180 3.0 5.0 0.00 0.00 0.00 1010.9
20260509002113 77 135 4.0 10.0 0.00 0.00 0.00 1010.9
20260509001413 78 180 3.0 5.0 0.00 0.00 0.00 1010.8
20260509001313 78 180 2.0 4.0 0.00 0.00 0.00 1010.9
20260509000913 78 90 2.0 4.0 0.00 0.00 0.00 1011.0
20260509000513 79 225 3.0 5.0 0.00 0.00 0.00 1010.9
20260509000413 79 180 2.0 3.0 0.00 0.00 0.00 1011.1
20260509000013 79 202 2.0 5.0 0.00 0.00 0.00 1011.1
20260508235913 79 157 3.0 5.0 0.00 0.00 0.00 1011.1
20260508235514 79 225 4.0 6.0 0.00 0.00 0.00 1011.1
20260508235413 79 247 2.0 4.0 0.00 0.00 0.00 1011.1
20260508235013 79 202 2.0 4.0 0.00 0.00 0.00 1011.0
20260508234914 79 202 1.0 2.0 0.00 0.00 0.00 1011.0
20260508234813 79 157 1.0 2.0 0.00 0.00 0.00 1011.0
20260508234713 79 180 5.0 7.0 0.00 0.00 0.00 1011.0
20260508234313 79 225 6.0 10.0 0.00 0.00 0.00 1011.0
20260508234213 79 202 6.0 8.0 0.00 0.00 0.00 1011.2
20260508233813 80 202 3.0 5.0 0.00 0.00 0.00 1011.1
20260508233713 80 180 3.0 5.0 0.00 0.00 0.00 1011.2
20260508233313 80 202 3.0 7.0 0.00 0.00 0.00 1011.1
20260508233213 80 225 4.0 6.0 0.00 0.00 0.00 1011.2
20260508232513 80 135 2.0 4.0 0.00 0.00 0.00 1011.2
20260508232413 80 202 2.0 2.0 0.00 0.00 0.00 1011.0
20260508232313 80 180 2.0 3.0 0.00 0.00 0.00 1011.2
20260508231913 80 225 3.0 6.0 0.00 0.00 0.00 1011.2
20260508231814 81 202 2.0 3.0 0.00 0.00 0.00 1011.4
20260508231113 81 180 3.0 5.0 0.00 0.00 0.00 1011.2
20260508230713 82 225 1.0 1.0 0.00 0.00 0.00 1011.3
20260508230613 82 157 2.0 6.0 0.00 0.00 0.00 1011.3
20260508230213 82 180 3.0 4.0 0.00 0.00 0.00 1011.3
20260508225513 84 225 7.0 10.0 0.00 0.00 0.00 1011.6
20260508225414 84 112 2.0 4.0 0.00 0.00 0.00 1011.8
20260508225314 84 202 2.0 3.0 0.00 0.00 0.00 1011.5
20260508225214 84 135 1.0 3.0 0.00 0.00 0.00 1011.7
20260508225113 84 225 3.0 5.0 0.00 0.00 0.00 1011.8
20260508224713 84 180 3.0 6.0 0.00 0.00 0.00 1011.5
20260508224313 84 157 3.0 5.0 0.00 0.00 0.00 1011.5
20260508223614 83 225 4.0 5.0 0.00 0.00 0.00 1011.7
20260508222313 84 157 3.0 5.0 0.00 0.00 0.00 1011.6
20260508221913 83 247 2.0 2.0 0.00 0.00 0.00 1011.7
20260508221813 83 180 2.0 2.0 0.00 0.00 0.00 1011.8
20260508221113 83 180 4.0 6.0 0.00 0.00 0.00 1012.1
20260508220713 84 225 6.0 9.0 0.00 0.00 0.00 1012.0
20260508220613 84 225 4.0 8.0 0.00 0.00 0.00 1012.1
20260508215613 84 225 8.0 10.0 0.00 0.00 0.00 1012.3
20260508215213 84 45 2.0 3.0 0.00 0.00 0.00 1012.1
20260508214813 84 180 2.0 3.0 0.00 0.00 0.00 1012.3
20260508214413 83 180 2.0 4.0 0.00 0.00 0.00 1012.2
20260508214313 83 157 2.0 3.0 0.00 0.00 0.00 1012.1
20260508214213 83 157 3.0 5.0 0.00 0.00 0.00 1012.3
20260508214113 83 225 4.0 8.0 0.00 0.00 0.00 1012.2
20260508213113 83 180 1.0 2.0 0.00 0.00 0.00 1012.3
20260508212713 82 157 2.0 4.0 0.00 0.00 0.00 1012.3
20260508212613 82 112 2.0 4.0 0.00 0.00 0.00 1012.3
20260508212513 82 225 3.0 5.0 0.00 0.00 0.00 1012.4
20260508212414 82 202 6.0 9.0 0.00 0.00 0.00 1012.4
20260508211113 82 157 2.0 3.0 0.00 0.00 0.00 1012.4
20260508211013 82 225 3.0 3.0 0.00 0.00 0.00 1012.5
20260508210313 82 180 2.0 5.0 0.00 0.00 0.00 1012.7
20260508210213 82 225 2.0 5.0 0.00 0.00 0.00 1012.7
20260508210113 82 180 2.0 5.0 0.00 0.00 0.00 1012.6
20260508210013 82 202 2.0 5.0 0.00 0.00 0.00 1012.7
20260508205913 82 135 2.0 3.0 0.00 0.00 0.00 1012.6
20260508205813 81 202 2.0 4.0 0.00 0.00 0.00 1012.6
20260508205113 82 157 2.0 4.0 0.00 0.00 0.00 1012.9
20260508205013 82 180 3.0 5.0 0.00 0.00 0.00 1012.8
20260508204913 82 247 4.0 7.0 0.00 0.00 0.00 1012.8
20260508204213 80 270 2.0 3.0 0.00 0.00 0.00 1012.9
20260508203513 80 225 5.0 8.0 0.00 0.00 0.00 1013.1
20260508203413 80 225 5.0 8.0 0.00 0.00 0.00 1013.1
20260508203313 80 202 6.0 9.0 0.00 0.00 0.00 1013.1
20260508203214 80 225 4.0 7.0 0.00 0.00 0.00 1013.2
20260508203113 80 202 2.0 3.0 0.00 0.00 0.00 1013.1
20260508203013 80 202 4.0 8.0 0.00 0.00 0.00 1013.1
20260508202613 80 135 3.0 6.0 0.00 0.00 0.00 1013.1
20260508202513 80 202 2.0 3.0 0.00 0.00 0.00 1013.4
20260508201213 78 157 2.0 3.0 0.00 0.00 0.00 1013.3
20260508200213 78 157 2.0 2.0 0.00 0.00 0.00 1013.5
20260508200113 78 202 2.0 5.0 0.00 0.00 0.00 1013.6
20260508200013 78 180 2.0 5.0 0.00 0.00 0.00 1013.4
20260508195913 78 202 1.0 3.0 0.00 0.00 0.00 1013.5
20260508195813 78 225 1.0 2.0 0.00 0.00 0.00 1013.5
20260508195713 78 157 2.0 4.0 0.00 0.00 0.00 1013.5
20260508195613 78 247 3.0 6.0 0.00 0.00 0.00 1013.5
20260508194313 75 180 2.0 4.0 0.00 0.00 0.00 1013.8
20260508193313 74 202 5.0 8.0 0.00 0.00 0.00 1013.8
20260508193213 74 180 3.0 5.0 0.00 0.00 0.00 1014.0
20260508193113 74 225 3.0 5.0 0.00 0.00 0.00 1013.8
20260508192713 73 225 6.0 8.0 0.00 0.00 0.00 1013.9
20260508192013 73 225 4.0 8.0 0.00 0.00 0.00 1013.9
20260508191313 73 180 2.0 3.0 0.00 0.00 0.00 1014.1
20260508191213 73 180 2.0 3.0 0.00 0.00 0.00 1014.1
20260508190813 73 225 3.0 4.0 0.00 0.00 0.00 1014.1
20260508190113 72 292 3.0 6.0 0.00 0.00 0.00 1014.1
20260508190013 72 337 3.0 4.0 0.00 0.00 0.00 1014.1
20260508185313 71 225 3.0 5.0 0.00 0.00 0.00 1014.3
20260508185213 71 315 2.0 4.0 0.00 0.00 0.00 1014.3
20260508184813 72 202 5.0 7.0 0.00 0.00 0.00 1014.5
20260508184413 71 225 3.0 5.0 0.00 0.00 0.00 1014.4
20260508184313 71 180 2.0 4.0 0.00 0.00 0.00 1014.4
20260508183914 71 180 1.0 2.0 0.00 0.00 0.00 1014.4
20260508183513 71 180 1.0 3.0 0.00 0.00 0.00 1014.3
20260508183413 71 202 1.0 3.0 0.00 0.00 0.00 1014.4
20260508183313 71 180 1.0 3.0 0.00 0.00 0.00 1014.6
20260508183213 70 157 1.0 2.0 0.00 0.00 0.00 1014.4
20260508183113 70 135 1.0 2.0 0.00 0.00 0.00 1014.4
20260508182413 70 225 3.0 6.0 0.00 0.00 0.00 1014.5
20260508181413 70 157 2.0 2.0 0.00 0.00 0.00 1014.6
20260508181313 70 90 2.0 2.0 0.00 0.00 0.00 1014.5
20260508180313 69 270 3.0 4.0 0.00 0.00 0.00 1014.6
20260508180213 69 202 2.0 3.0 0.00 0.00 0.00 1014.5
20260508180113 69 247 1.0 2.0 0.00 0.00 0.00 1014.5
20260508175713 68 180 1.0 2.0 0.00 0.00 0.00 1014.6
20260508175613 68 202 2.0 4.0 0.00 0.00 0.00 1014.6
20260508175213 68 157 2.0 3.0 0.00 0.00 0.00 1014.5
20260508174813 67 202 2.0 3.0 0.00 0.00 0.00 1014.8
20260508174413 67 157 2.0 2.0 0.00 0.00 0.00 1014.8
20260508174013 67 225 3.0 6.0 0.00 0.00 0.00 1014.9
20260508173613 67 225 1.0 3.0 0.00 0.00 0.00 1014.7
20260508173513 67 202 1.0 3.0 0.00 0.00 0.00 1014.7
20260508173113 67 337 1.0 2.0 0.00 0.00 0.00 1015.0
20260508172113 66 180 1.0 2.0 0.00 0.00 0.00 1014.9
20260508171714 66 202 2.0 3.0 0.00 0.00 0.00 1014.8
20260508171613 66 180 3.0 5.0 0.00 0.00 0.00 1014.9
20260508171513 66 202 2.0 3.0 0.00 0.00 0.00 1014.9
20260508171413 66 202 1.0 2.0 0.00 0.00 0.00 1014.9
20260508170713 66 225 1.0 2.0 0.00 0.00 0.00 1014.8
20260508170613 66 0 2.0 4.0 0.00 0.00 0.00 1014.9
20260508165913 65 180 1.0 3.0 0.00 0.00 0.00 1014.8
20260508165213 63 157 1.0 2.0 0.00 0.00 0.00 1014.8
20260508165113 63 180 3.0 4.0 0.00 0.00 0.00 1014.7
20260508164713 64 225 2.0 2.0 0.00 0.00 0.00 1014.8
20260508164313 63 202 2.0 3.0 0.00 0.00 0.00 1014.7
20260508163913 63 180 1.0 2.0 0.00 0.00 0.00 1014.8
20260508163813 63 225 2.0 2.0 0.00 0.00 0.00 1014.7
20260508163713 63 202 2.0 3.0 0.00 0.00 0.00 1014.7
20260508163613 63 202 1.0 2.0 0.00 0.00 0.00 1014.8
20260508163513 63 180 1.0 2.0 0.00 0.00 0.00 1014.7
20260508163413 63 225 2.0 3.0 0.00 0.00 0.00 1014.6
20260508163313 63 225 1.0 3.0 0.00 0.00 0.00 1014.8
20260508163213 62 225 1.0 2.0 0.00 0.00 0.00 1014.7
20260508162813 62 202 3.0 4.0 0.00 0.00 0.00 1014.8
20260508162713 62 247 1.0 2.0 0.00 0.00 0.00 1014.8
20260508162613 62 157 1.0 1.0 0.00 0.00 0.00 1014.7
20260508161313 62 135 1.0 2.0 0.00 0.00 0.00 1014.7
20260508161213 62 180 0.0 2.0 0.00 0.00 0.00 1014.6
20260508161113 61 67 0.0 0.0 0.00 0.00 0.00 1014.7
20260508160713 61 202 1.0 1.0 0.00 0.00 0.00 1014.8
20260508160313 61 225 2.0 4.0 0.00 0.00 0.00 1014.7
20260508155613 60 225 2.0 2.0 0.00 0.00 0.00 1014.7
20260508155214 60 225 1.0 3.0 0.00 0.00 0.00 1014.7
20260508155113 60 225 1.0 2.0 0.00 0.00 0.00 1014.7
20260508153813 60 225 1.0 2.0 0.00 0.00 0.00 1015.0
20260508153713 60 292 2.0 3.0 0.00 0.00 0.00 1015.0
20260508151813 59 180 1.0 2.0 0.00 0.00 0.00 1015.0
20260508151415 58 202 0.0 1.0 0.00 0.00 0.00 1015.0
20260508151013 58 270 2.0 3.0 0.00 0.00 0.00 1014.9
20260508150613 58 292 1.0 2.0 0.00 0.00 0.00 1015.0
20260508145613 58 315 1.0 1.0 0.00 0.00 0.00 1015.1
20260508145513 58 0 1.0 2.0 0.00 0.00 0.00 1015.2
20260508145414 58 315 2.0 3.0 0.00 0.00 0.00 1015.2
20260508144715 58 315 2.0 3.0 0.00 0.00 0.00 1015.1
20260508144613 58 337 2.0 3.0 0.00 0.00 0.00 1015.2
20260508144513 58 292 2.0 2.0 0.00 0.00 0.00 1015.1
20260508143814 57 22 2.0 3.0 0.00 0.00 0.00 1015.3
20260508143415 57 337 1.0 1.0 0.00 0.00 0.00 1015.0
20260508143313 57 337 1.0 1.0 0.00 0.00 0.00 1015.2
20260508142613 57 292 1.0 2.0 0.00 0.00 0.00 1015.0
20260508142513 57 45 1.0 1.0 0.00 0.00 0.00 1015.0
20260508142113 57 135 0.0 0.0 0.00 0.00 0.00 1015.1
20260508142013 57 135 0.0 0.0 0.00 0.00 0.00 1015.1
20260508141913 57 225 0.0 0.0 0.00 0.00 0.00 1015.0
20260508140013 57 112 1.0 2.0 0.00 0.00 0.00 1015.1
20260508135913 57 45 1.0 1.0 0.00 0.00 0.00 1015.1
20260508135814 57 22 1.0 3.0 0.00 0.00 0.00 1015.2
20260508135713 57 22 0.0 1.0 0.00 0.00 0.00 1014.9
20260508135614 56 135 0.0 0.0 0.00 0.00 0.00 1015.1
20260508135513 57 135 0.0 1.0 0.00 0.00 0.00 1015.0
20260508135414 57 135 0.0 1.0 0.00 0.00 0.00 1015.2